FLOCK 4BE 23

导读

FLOCK 4BE 23是美国发射的一颗商业遥感小卫星,于2024年8月16日成功发射入轨,属于Planet Labs公司Flock系列卫星群的组成部分。该卫星延续了Flock系列高重访频率、高分辨率对地观测的设计特点,依托SuperDove光学载荷,可为农业监测、城市规划、灾害评估、自然资源管理等领域提供持续更新的地球影像数据,助力全球地理空间信息服务与商业应用拓展。

基本信息
目录编号:
60490
目录名称:
FLOCK 4BE 23
国际标识:
2024-149Y
轨道中心:
EARTH
卫星名称:
FLOCK 4BE 23
卫星全名:
FLOCK 4BE 23
卫星状态:
在轨 (已飞行756 天)
发射日期:
2024-08-16 UTC
国别 :
美国 (US)
星等 :
--
该卫星已列入 空间交会检测服务 Space Conjunction Data Service (SCDS) ,当前飞行风险评估等级: 无高风险
轨道信息
数据来源 国际轨道数据
星历时间: 2026-09-11T08:19:07+0800
17小时前
查看轨道信息
半长轴: 6824.606km
偏心率: 0.0002446
轨道倾角: 97.374°
近地点辐角 347.177°
升交点赤经 336.934°
平近点角 12.941°
近地点: 444.799km
远地点: 448.139km
周期: 93.514分钟
每日圈数: 15.398784
详细信息
使用方式:
暂无
2D轨道图
3D轨道图
轨道高度分析图
轨道倾角分析图
轨道综合分析图
查看轨道综合分析图
交会数据列表
事件ID 空间交会对象 最接近时刻(TCA) 交会距离 交会风险概率(CRP) 交会风险指数(CRI) 操作
CDM_260913-080305-912606-049022
YAM-6 (59126)
2026-09-13T
08:03:05+0000
1.473 km
极远距离
4.554387E-6 低风险 0.48
与全量物体交会距离演化趋势
与全量物体交会风险概率演化趋势